Weather History for KAWG - March, 2014

Change the Weather History Date:

Friday, March 21, 2014

  Actual Average (KIOW) Record (KIOW)
Temperature  
Mean Temperature 45 °F 41 °F  
Max Temperature 60 °F 51 °F - ()
Min Temperature 30 °F 31 °F - ()
Degree Days  
Heating Degree Days 20 24  
Month to date heating degree days 604  
Since 1 July heating degree days 5554  
Cooling Degree Days 0 0  
Month to date cooling degree days 0  
Year to date cooling degree days 0  
Moisture  
Dew Point 33 °F    
Average Humidity 71    
Maximum Humidity 100    
Minimum Humidity 39    
Precipitation  
Precipitation 0.00 in 0.07 in - ()
Month to date precipitation 1.53  
Year to date precipitation 3.69  
Sea Level Pressure  
Sea Level Pressure 29.87 in    
Wind  
Wind Speed 12 mph (NNE)    
Max Wind Speed 29 mph    
Max Gust Speed 37 mph    
Visibility 10 miles    
Events      
T = Trace of Precipitation, MM = Missing Value Source: NWS Daily Summary

Daily Weather History Graph

Daily Weather History Graph

Search for Another Location

Airport or City:

Trip Planner

Search our weather history database for the weather conditions in past years. The results will help you decide how hot, cold, wet, or windy it might be!

Date:

Astronomy

Mar. 21, 2014 Rise Set
Actual Time 7:08 AM CDT 7:19 PM CDT
Civil Twilight 6:40 AM CDT 7:47 PM CDT
Nautical Twilight 6:08 AM CDT 8:19 PM CDT
Astronomical Twilight 5:35 AM CDT 8:52 PM CDT
Moon No Moon Rise 9:57 AM CDT (3/21)
Length of Visible Light 13h 06m
Length of Day
12h 11m
Waning Gibbous, 75% of the Moon is Illuminated
Mar 21
Waning Gibbous
Mar 23
Last Quarter
Mar 30
New
Apr 7
First Quarter
Apr 15
Full

Hourly Weather History & Observations

Time (CDT) Temp. Windchill Dew Point Humidity Pressure Visibility Wind Dir Wind Speed Gust Speed Precip Events Conditions
12:15 AM 33.8 °F 26.4 °F 30.2 °F 87% 29.94 in 10.0 mi ENE 9.2 mph - N/A   Clear
12:35 AM 33.8 °F 27.0 °F 30.2 °F 87% 29.94 in 10.0 mi ENE 8.1 mph - N/A   Clear
12:55 AM 33.8 °F 25.8 °F 30.2 °F 87% 29.94 in 10.0 mi ENE 10.4 mph - N/A   Clear
1:15 AM 33.8 °F 25.8 °F 30.2 °F 87% 29.94 in 10.0 mi ENE 10.4 mph - N/A   Clear
1:35 AM 33.8 °F 27.0 °F 30.2 °F 87% 29.94 in 10.0 mi East 8.1 mph - N/A   Clear
1:55 AM 32.0 °F 24.8 °F 30.2 °F 93% 29.93 in 10.0 mi East 8.1 mph - N/A   Clear
2:15 AM 33.8 °F 27.0 °F 30.2 °F 87% 29.92 in 10.0 mi East 8.1 mph - N/A   Clear
2:35 AM 33.8 °F 26.4 °F 30.2 °F 87% 29.91 in 10.0 mi East 9.2 mph - N/A   Clear
2:55 AM 33.8 °F 26.4 °F 30.2 °F 87% 29.90 in 10.0 mi East 9.2 mph - N/A   Clear
3:15 AM 33.8 °F 27.0 °F 30.2 °F 87% 29.89 in 10.0 mi ESE 8.1 mph - N/A   Clear
3:35 AM 33.8 °F 27.0 °F 30.2 °F 87% 29.88 in 10.0 mi East 8.1 mph - N/A   Clear
3:55 AM 32.0 °F 24.8 °F 30.2 °F 93% 29.88 in 10.0 mi East 8.1 mph - N/A   Clear
4:15 AM 32.0 °F 24.8 °F 30.2 °F 93% 29.86 in 10.0 mi East 8.1 mph - N/A   Clear
4:35 AM 32.0 °F 25.6 °F 30.2 °F 93% 29.87 in 10.0 mi East 6.9 mph - N/A   Clear
4:55 AM 32.0 °F 25.6 °F 30.2 °F 93% 29.88 in 10.0 mi SE 6.9 mph - N/A   Clear
5:15 AM 32.0 °F 24.8 °F 30.2 °F 93% 29.88 in 10.0 mi SE 8.1 mph - N/A   Clear
5:35 AM 32.0 °F 25.6 °F 30.2 °F 93% 29.88 in 10.0 mi SE 6.9 mph - N/A   Clear
5:55 AM 30.2 °F 24.3 °F 30.2 °F 100% 29.87 in 9.0 mi ESE 5.8 mph - N/A   Clear
6:15 AM 30.2 °F 22.6 °F 28.4 °F 93% 29.86 in 7.0 mi East 8.1 mph - N/A   Clear
6:35 AM 30.2 °F 23.4 °F 30.2 °F 100% 29.86 in 7.0 mi ESE 6.9 mph - N/A   Clear
6:55 AM 30.2 °F 23.4 °F 28.4 °F 93% 29.86 in 8.0 mi ESE 6.9 mph - N/A   Clear
7:15 AM 30.2 °F 23.4 °F 28.4 °F 93% 29.86 in 6.0 mi ESE 6.9 mph - N/A   Clear
7:35 AM 30.2 °F 22.6 °F 30.2 °F 100% 29.85 in 6.0 mi ESE 8.1 mph - N/A   Clear
7:55 AM 32.0 °F 24.8 °F 32.0 °F 100% 29.85 in 7.0 mi SE 8.1 mph - N/A   Clear
8:15 AM 33.8 °F 26.4 °F 32.0 °F 93% 29.84 in 8.0 mi ESE 9.2 mph - N/A   Clear
8:35 AM 35.6 °F 27.5 °F 32.0 °F 87% 29.83 in 9.0 mi ESE 11.5 mph - N/A   Clear
8:55 AM 37.4 °F 31.4 °F 33.8 °F 87% 29.83 in 10.0 mi SE 8.1 mph - N/A   Partly Cloudy
9:15 AM 41.0 °F 35.2 °F 33.8 °F 76% 29.83 in 10.0 mi SE 9.2 mph - N/A   Clear
9:35 AM 41.0 °F 33.5 °F 33.8 °F 76% 29.82 in 10.0 mi SE 13.8 mph - N/A   Clear
9:55 AM 42.8 °F 35.8 °F 35.6 °F 76% 29.81 in 10.0 mi SSE 13.8 mph - N/A   Clear
10:15 AM 44.6 °F 38.1 °F 35.6 °F 71% 29.81 in 10.0 mi SSE 13.8 mph - N/A   Clear
10:35 AM 46.4 °F 41.1 °F 37.4 °F 71% 29.81 in 10.0 mi SSE 11.5 mph - N/A   Clear
10:55 AM 48.2 °F - 37.4 °F 66% 29.82 in 10.0 mi South 10.4 mph - N/A   Clear
11:15 AM 50.0 °F - 37.4 °F 62% 29.79 in 9.0 mi SE 8.1 mph - N/A   Clear
11:35 AM 53.6 °F - 39.2 °F 58% 29.79 in 10.0 mi SSE 10.4 mph - N/A   Clear
11:55 AM 55.4 °F - 37.4 °F 51% 29.78 in 10.0 mi South 16.1 mph - N/A   Clear
12:15 PM 55.4 °F - 39.2 °F 54% 29.77 in 10.0 mi SSW 11.5 mph 17.3 mph N/A   Clear
12:35 PM 59.0 °F - 37.4 °F 45% 29.77 in 10.0 mi WSW 16.1 mph - N/A   Clear
12:55 PM 59.0 °F - 37.4 °F 45% 29.77 in 10.0 mi WSW 17.3 mph - N/A   Clear
1:15 PM 60.8 °F - 37.4 °F 42% 29.76 in 10.0 mi WSW 17.3 mph 24.2 mph N/A   Clear
1:35 PM 59.0 °F - 37.4 °F 45% 29.76 in 10.0 mi WSW 13.8 mph 24.2 mph N/A   Partly Cloudy
1:55 PM 59.0 °F - 37.4 °F 45% 29.76 in 10.0 mi WSW 13.8 mph 20.7 mph N/A   Clear
2:15 PM 59.0 °F - 35.6 °F 42% 29.75 in 10.0 mi West 20.7 mph - N/A   Clear
2:35 PM 57.2 °F - 37.4 °F 48% 29.76 in 10.0 mi WNW 19.6 mph 25.3 mph N/A   Clear
2:55 PM 59.0 °F - 35.6 °F 42% 29.76 in 10.0 mi WNW 19.6 mph 27.6 mph N/A   Clear
3:15 PM 57.2 °F - 35.6 °F 44% 29.74 in 10.0 mi NW 19.6 mph - N/A   Clear
3:35 PM 59.0 °F - 35.6 °F 42% 29.74 in 10.0 mi NW 17.3 mph 25.3 mph N/A   Clear
3:55 PM 59.0 °F - 35.6 °F 42% 29.77 in 10.0 mi NW 20.7 mph - N/A   Scattered Clouds
4:15 PM 57.2 °F - 35.6 °F 44% 29.79 in 10.0 mi WNW 17.3 mph 25.3 mph N/A   Overcast
4:35 PM 57.2 °F - 35.6 °F 44% 29.80 in 10.0 mi WNW 18.4 mph - N/A   Overcast
4:55 PM 59.0 °F - 33.8 °F 39% 29.81 in 10.0 mi WNW 21.9 mph 31.1 mph N/A   Scattered Clouds
5:15 PM 59.0 °F - 33.8 °F 39% 29.81 in 10.0 mi NW 20.7 mph 33.4 mph N/A   Scattered Clouds
5:35 PM 57.2 °F - 33.8 °F 41% 29.82 in 10.0 mi NW 24.2 mph 31.1 mph N/A   Mostly Cloudy
5:55 PM 55.4 °F - 35.6 °F 47% 29.83 in 10.0 mi NW 17.3 mph 23.0 mph N/A   Mostly Cloudy
6:15 PM 55.4 °F - 35.6 °F 47% 29.84 in 10.0 mi NW 16.1 mph 23.0 mph N/A   Mostly Cloudy
6:35 PM 53.6 °F - 35.6 °F 51% 29.84 in 10.0 mi NW 12.7 mph - N/A   Mostly Cloudy
6:55 PM 53.6 °F - 35.6 °F 51% 29.85 in 10.0 mi NW 17.3 mph - N/A   Mostly Cloudy
7:15 PM 51.8 °F - 33.8 °F 50% 29.86 in 10.0 mi NW 20.7 mph 26.5 mph N/A   Partly Cloudy
7:35 PM 50.0 °F - 37.4 °F 62% 29.88 in 10.0 mi NW 28.8 mph 36.8 mph N/A   Partly Cloudy
7:55 PM 46.4 °F 38.3 °F 37.4 °F 71% 29.90 in 10.0 mi NNW 23.0 mph 33.4 mph N/A   Scattered Clouds
8:15 PM 44.6 °F 35.1 °F 35.6 °F 71% 29.93 in 10.0 mi NNW 27.6 mph 34.5 mph N/A   Partly Cloudy
8:35 PM 42.8 °F 34.3 °F 35.6 °F 76% 29.95 in 10.0 mi NNW 19.6 mph 27.6 mph N/A   Clear
8:55 PM 41.0 °F 30.7 °F 32.0 °F 70% 29.96 in 10.0 mi NW 25.3 mph 36.8 mph N/A   Partly Cloudy
9:15 PM 39.2 °F 29.3 °F 32.0 °F 75% 29.98 in 10.0 mi NW 20.7 mph 32.2 mph N/A   Mostly Cloudy
9:35 PM 39.2 °F 29.3 °F 32.0 °F 75% 30.00 in 10.0 mi NNW 20.7 mph - N/A   Overcast
9:55 PM 37.4 °F 26.6 °F 30.2 °F 75% 30.02 in 10.0 mi NW 21.9 mph 31.1 mph N/A   Overcast
10:15 PM 37.4 °F 26.4 °F 30.2 °F 75% 30.03 in 10.0 mi NNW 23.0 mph 33.4 mph N/A   Overcast
10:35 PM 37.4 °F 26.6 °F 30.2 °F 75% 30.03 in 10.0 mi NW 21.9 mph 33.4 mph N/A   Overcast
10:55 PM 37.4 °F 25.6 °F 30.2 °F 75% 30.04 in 10.0 mi NNW 26.5 mph - N/A   Overcast
11:15 PM 35.6 °F 23.2 °F 28.4 °F 75% 30.04 in 10.0 mi NNW 26.5 mph 35.7 mph N/A   Overcast
11:35 PM 35.6 °F 24.0 °F 28.4 °F 75% 30.06 in 10.0 mi NNW 23.0 mph 28.8 mph N/A   Overcast
11:55 PM 35.6 °F 24.5 °F 28.4 °F 75% 30.07 in 10.0 mi NNW 20.7 mph 27.6 mph N/A   Overcast